CSC8841 ZUUU-ZBYN

Flight info

Callsign CSC8841
Flight time N/A
Altitude 35100
Route GURET9W GURET W233 AGULU W81 APIMI W275 WJC G212 NITID NITID9Z
Aircraft A320/M-SDE3FGHIRWY/LB1

Departure

Time N/A
Airport Chengdu Shuangliu International Airport (ZUUU)

Arrival

Time 2026-04-29 13:25
Airport Taiyuan Wusu International Airport (ZBYN)
Time Latitude Longitude Altitude Speed Heading
2026-04-29 12:44 35.64451 109.31680 35242 ft 435 kts 12°
2026-04-29 12:45 35.67068 109.32845 35241 ft 434 kts 12°
2026-04-29 12:45 35.72684 109.35765 35239 ft 443 kts 20°
2026-04-29 12:46 35.77863 109.39964 35245 ft 452 kts 31°
2026-04-29 12:46 35.82404 109.45446 35246 ft 462 kts 43°
2026-04-29 12:47 35.86247 109.51773 35241 ft 464 kts 47°
2026-04-29 12:47 35.90009 109.58255 35236 ft 464 kts 47°
2026-04-29 12:48 35.93756 109.64681 35225 ft 464 kts 46°
2026-04-29 12:48 35.97517 109.71117 35215 ft 464 kts 47°
2026-04-29 12:49 36.01302 109.77600 35228 ft 464 kts 47°
2026-04-29 12:49 36.05055 109.84040 35244 ft 465 kts 47°
2026-04-29 12:50 36.08829 109.90529 35234 ft 465 kts 47°
2026-04-29 12:50 36.12602 109.97032 35364 ft 464 kts 47°
2026-04-29 12:51 36.16337 110.03484 35264 ft 462 kts 47°
2026-04-29 12:51 36.20058 110.09912 35242 ft 462 kts 47°
2026-04-29 12:52 36.23788 110.16373 35238 ft 461 kts 47°
2026-04-29 12:52 36.27513 110.22842 35233 ft 460 kts 48°
2026-04-29 12:53 36.31213 110.29287 35237 ft 459 kts 48°
2026-04-29 12:53 36.34904 110.35726 35234 ft 459 kts 48°
2026-04-29 12:54 36.38569 110.42138 35226 ft 458 kts 48°
2026-04-29 12:54 36.42246 110.48583 35225 ft 459 kts 48°
2026-04-29 12:55 36.45931 110.55050 35226 ft 458 kts 49°
2026-04-29 12:55 36.49592 110.61492 35230 ft 456 kts 48°
2026-04-29 12:56 36.53244 110.67925 35201 ft 458 kts 49°
2026-04-29 12:56 36.55071 110.71148 34968 ft 456 kts 49°
2026-04-29 12:56 36.56880 110.74351 34741 ft 452 kts 49°
2026-04-29 12:56 36.58678 110.77535 34512 ft 451 kts 49°
2026-04-29 12:57 36.60466 110.80705 34282 ft 447 kts 49°
2026-04-29 12:57 36.62238 110.83850 34049 ft 444 kts 49°
2026-04-29 12:57 36.64012 110.86995 33823 ft 443 kts 49°
2026-04-29 12:57 36.65765 110.90104 33617 ft 440 kts 49°
2026-04-29 12:58 36.67530 110.93237 33403 ft 440 kts 49°
2026-04-29 12:58 36.69281 110.96348 33187 ft 439 kts 49°
2026-04-29 12:58 36.71084 110.99370 32975 ft 436 kts 46°
2026-04-29 12:58 36.73002 111.02239 32765 ft 432 kts 44°
2026-04-29 12:59 36.74990 111.05022 32552 ft 432 kts 43°
2026-04-29 12:59 36.77011 111.07816 32333 ft 430 kts 43°
2026-04-29 12:59 36.79011 111.10578 32137 ft 429 kts 44°
2026-04-29 12:59 36.81014 111.13346 31934 ft 428 kts 44°
2026-04-29 13:00 36.82991 111.16087 31727 ft 428 kts 44°
2026-04-29 13:00 36.84959 111.18819 31524 ft 426 kts 44°
2026-04-29 13:00 36.86942 111.21574 31322 ft 426 kts 45°
2026-04-29 13:00 36.88924 111.24330 31120 ft 425 kts 45°
2026-04-29 13:01 36.90884 111.27062 30919 ft 424 kts 45°
2026-04-29 13:01 36.92856 111.29815 30669 ft 423 kts 45°
2026-04-29 13:01 36.94788 111.32510 30209 ft 423 kts 46°
2026-04-29 13:01 36.96755 111.35255 29576 ft 423 kts 46°
2026-04-29 13:02 36.98718 111.38001 28858 ft 423 kts 46°
2026-04-29 13:02 37.00652 111.40710 28370 ft 416 kts 46°
2026-04-29 13:02 37.02557 111.43381 27888 ft 411 kts 46°
2026-04-29 13:02 37.04448 111.46034 27398 ft 405 kts 46°
2026-04-29 13:03 37.06305 111.48640 26908 ft 400 kts 46°
2026-04-29 13:03 37.08147 111.51227 26416 ft 395 kts 46°
2026-04-29 13:03 37.09958 111.53773 25939 ft 391 kts 46°
2026-04-29 13:03 37.11738 111.56279 25454 ft 386 kts 46°
2026-04-29 13:04 37.13515 111.58780 24958 ft 381 kts 46°
2026-04-29 13:04 37.15255 111.61231 24482 ft 377 kts 47°
2026-04-29 13:04 37.16970 111.63651 24010 ft 372 kts 47°
2026-04-29 13:04 37.18684 111.66072 23536 ft 368 kts 47°
2026-04-29 13:05 37.20380 111.68469 23060 ft 364 kts 47°
2026-04-29 13:05 37.22032 111.70805 22596 ft 361 kts 47°
2026-04-29 13:05 37.23681 111.73142 22138 ft 357 kts 48°
2026-04-29 13:05 37.25222 111.75581 21661 ft 355 kts 52°
2026-04-29 13:06 37.26587 111.78140 21189 ft 354 kts 57°
2026-04-29 13:06 37.27783 111.80817 20733 ft 353 kts 60°
2026-04-29 13:06 37.28916 111.83564 20313 ft 349 kts 60°
2026-04-29 13:06 37.30003 111.86218 19996 ft 341 kts 59°
2026-04-29 13:07 37.31162 111.88782 19616 ft 335 kts 56°
2026-04-29 13:07 37.32429 111.91226 19254 ft 330 kts 53°
2026-04-29 13:07 37.33778 111.93526 18908 ft 324 kts 50°
2026-04-29 13:07 37.35142 111.95751 18565 ft 320 kts 50°
2026-04-29 13:08 37.36493 111.97945 18217 ft 315 kts 50°
2026-04-29 13:08 37.37819 112.00096 17896 ft 310 kts 50°
2026-04-29 13:08 37.39121 112.02214 17597 ft 306 kts 50°
2026-04-29 13:08 37.40417 112.04323 17189 ft 300 kts 50°
2026-04-29 13:09 37.41662 112.06351 16780 ft 295 kts 50°
2026-04-29 13:09 37.42909 112.08383 16356 ft 290 kts 50°
2026-04-29 13:09 37.44135 112.10380 15931 ft 285 kts 50°
2026-04-29 13:09 37.45325 112.12328 15538 ft 281 kts 51°
2026-04-29 13:10 37.46487 112.14284 15203 ft 274 kts 51°
2026-04-29 13:10 37.47611 112.16190 14904 ft 267 kts 51°
2026-04-29 13:10 37.48692 112.18024 14648 ft 261 kts 51°
2026-04-29 13:10 37.49771 112.19855 14389 ft 257 kts 51°
2026-04-29 13:11 37.50833 112.21656 14143 ft 253 kts 51°
2026-04-29 13:11 37.51868 112.23412 13920 ft 249 kts 51°
2026-04-29 13:11 37.52882 112.25133 13704 ft 244 kts 51°
2026-04-29 13:11 37.53888 112.26842 13488 ft 240 kts 51°
2026-04-29 13:12 37.54882 112.28529 13400 ft 240 kts 51°
2026-04-29 13:12 37.55888 112.30236 13355 ft 241 kts 51°
2026-04-29 13:12 37.56887 112.31933 13090 ft 242 kts 51°
2026-04-29 13:12 37.57882 112.33624 12788 ft 241 kts 50°
2026-04-29 13:13 37.59071 112.35074 12425 ft 238 kts 26°
2026-04-29 13:13 37.60659 112.35569 12053 ft 237 kts 356°
2026-04-29 13:13 37.62235 112.35060 11689 ft 240 kts 334°
2026-04-29 13:13 37.63709 112.34025 11331 ft 242 kts 332°
2026-04-29 13:14 37.65197 112.33014 10971 ft 244 kts 335°
2026-04-29 13:14 37.66744 112.32140 10605 ft 245 kts 339°
2026-04-29 13:14 37.68346 112.31416 10244 ft 247 kts 343°
2026-04-29 13:14 37.70021 112.30839 9875 ft 245 kts 347°
2026-04-29 13:15 37.71656 112.30434 9505 ft 238 kts 351°
2026-04-29 13:15 37.73274 112.30178 9138 ft 231 kts 354°
2026-04-29 13:15 37.74855 112.30061 8768 ft 225 kts 358°
2026-04-29 13:15 37.76410 112.30074 8395 ft 220 kts
2026-04-29 13:16 37.77921 112.30205 8024 ft 216 kts
2026-04-29 13:16 37.79384 112.30446 7656 ft 212 kts
2026-04-29 13:16 37.80814 112.30791 7407 ft 204 kts 11°
2026-04-29 13:16 37.82172 112.31222 7187 ft 202 kts 14°
2026-04-29 13:17 37.83509 112.31750 6967 ft 201 kts 18°
2026-04-29 13:17 37.84826 112.32375 6748 ft 202 kts 20°
2026-04-29 13:17 37.86114 112.33092 6526 ft 202 kts 24°
2026-04-29 13:17 37.87362 112.33946 6298 ft 204 kts 36°
2026-04-29 13:18 37.88306 112.35294 6071 ft 210 kts 62°
2026-04-29 13:18 37.88625 112.37093 5836 ft 213 kts 96°
2026-04-29 13:18 37.88198 112.38892 5631 ft 215 kts 115°
2026-04-29 13:18 37.87452 112.40520 5464 ft 213 kts 123°
2026-04-29 13:19 37.86611 112.42042 5507 ft 207 kts 125°
2026-04-29 13:19 37.85788 112.43448 5469 ft 186 kts 126°
2026-04-29 13:19 37.85052 112.44673 5444 ft 164 kts 126°
2026-04-29 13:19 37.84392 112.45766 5410 ft 151 kts 126°
2026-04-29 13:20 37.83767 112.46805 5417 ft 150 kts 126°
2026-04-29 13:20 37.83128 112.47866 5295 ft 150 kts 126°
2026-04-29 13:20 37.82505 112.48901 5100 ft 149 kts 126°
2026-04-29 13:20 37.81874 112.49951 4907 ft 147 kts 126°
2026-04-29 13:21 37.81256 112.50980 4715 ft 147 kts 127°
2026-04-29 13:21 37.80640 112.52007 4526 ft 146 kts 127°
2026-04-29 13:21 37.80032 112.53020 4337 ft 145 kts 127°
2026-04-29 13:21 37.79425 112.54032 4149 ft 144 kts 127°
2026-04-29 13:22 37.78822 112.55038 3965 ft 143 kts 127°
2026-04-29 13:22 37.78222 112.56039 3781 ft 143 kts 128°
2026-04-29 13:22 37.77628 112.57028 3599 ft 142 kts 128°
2026-04-29 13:22 37.77027 112.58032 3413 ft 142 kts 128°
2026-04-29 13:23 37.76439 112.59013 3230 ft 141 kts 128°
2026-04-29 13:23 37.75840 112.60014 3043 ft 141 kts 128°
2026-04-29 13:23 37.75706 112.60236 3002 ft 141 kts 128°
2026-04-29 13:23 37.75581 112.60445 2963 ft 141 kts 128°
2026-04-29 13:24 37.75454 112.60656 2923 ft 141 kts 128°
2026-04-29 13:24 37.75088 112.61268 2808 ft 140 kts 128°
2026-04-29 13:24 37.74694 112.61926 2684 ft 139 kts 128°
2026-04-29 13:25 37.74115 112.62888 2588 ft 136 kts 129°
2026-04-29 13:25 37.73356 112.64150 2588 ft 40 kts 128°
2026-04-29 13:25 37.73248 112.64420 2588 ft 27 kts 103°
2026-04-29 13:26 37.73237 112.64580 2588 ft 13 kts 63°
2026-04-29 13:26 37.73305 112.64580 2588 ft 11 kts 306°
2026-04-29 13:26 37.73343 112.64515 2588 ft 10 kts 309°
2026-04-29 13:26 37.73400 112.64421 2588 ft 17 kts 306°
2026-04-29 13:27 37.73487 112.64275 2588 ft 24 kts 306°
2026-04-29 13:27 37.73601 112.64086 2588 ft 29 kts 308°
2026-04-29 13:27 37.73722 112.63894 2588 ft 22 kts 326°
2026-04-29 13:27 37.73857 112.63890 2588 ft 20 kts 320°
2026-04-29 13:28 37.73947 112.63743 2588 ft 27 kts 307°
2026-04-29 13:28 37.74090 112.63507 2588 ft 40 kts 307°
2026-04-29 13:28 37.74279 112.63195 2588 ft 44 kts 307°
2026-04-29 13:28 37.74418 112.62996 2588 ft 23 kts 346°
2026-04-29 13:29 37.74543 112.63049 2588 ft 18 kts 354°
2026-04-29 13:29 37.74647 112.62968 2588 ft 16 kts 322°
2026-04-29 13:29 37.74743 112.62900 2588 ft 15 kts 335°
2026-04-29 13:29 37.74834 112.62884 2588 ft 12 kts 39°
2026-04-29 13:30 37.74869 112.62986 2588 ft 14 kts 41°
2026-04-29 13:30 37.74954 112.63066 2588 ft 16 kts 37°
2026-04-29 13:30 37.75052 112.63157 2588 ft 16 kts 36°
2026-04-29 13:30 37.75107 112.63161 2588 ft 6 kts 302°
2026-04-29 13:31 37.75131 112.63118 2588 ft 2 kts 307°
2026-04-29 13:31 37.75133 112.63113 2588 ft 0 kts 307°